Hourly Data Report for October 30, 2016

All times are specified in Local Standard Time (LST). Add 1 hour to adjust for Daylight Saving Time where and when it is observed.

GJOA HAVEN A
NUNAVUT

68°38'08.000" N
95°51'01.000" W
46.90 m
2302337
71597
YHK

Download Data

Hourly Data (October 2016)
Hourly Data Report for October 30, 2016
Temp Definition
°C
Dew Point Temp Definition
°C
Rel Hum Definition
%
Wind Dir Definition
10's deg

Wind Spd Definition
km/h
Visibility Definition
km
Stn Press Definition
kPa
Hmdx Definition


Wind Chill Definition


Weather Definition


TIME
00:00 Legend Double Dagger -6.3 -6.8 96 36 34 16.1 100.39   -15 LegendNANA
01:00 Legend Double Dagger -6.8 -7.3 96 36 37 16.1 100.43   -16 LegendNANA
02:00 Legend Double Dagger -7.6 -8.3 95 36 37 11.3 100.46   -17 Snow
03:00 Legend Double Dagger -8.4 -9.1 95 36 37 6.4 100.46   -18 Snow
04:00 Legend Double Dagger -8.8 -9.6 94 35 35 16.1 100.49   -19 LegendNANA
05:00 Legend Double Dagger -9.1 -9.9 94 36 41 4.8 100.50   -20 Fog
06:00 Legend Double Dagger -9.6 -10.4 94 36 46 4.0 100.49   -21 Fog
07:00 Legend Double Dagger -9.7 -10.6 93 36 39 4.8 100.52   -20 Fog
08:00 Legend Double Dagger -9.9 -10.8 94 36 43 4.0 100.51   -21 Fog
09:00 Legend Double Dagger -9.6 -10.5 93 36 37 6.4 100.51   -20 Fog
10:00 Legend Double Dagger -9.8 -10.7 93 1 37 8.1 100.55   -20 Fog
11:00 Legend Double Dagger -8.7 -9.6 93 1 37 9.7 100.57   -19 Fog
12:00 Legend Double Dagger -8.2 -9.3 92 1 41 6.4 100.58   -18 Fog
13:00 Legend Double Dagger -8.6 -9.8 91 2 41 12.9 100.58   -19 LegendNANA
14:00 Legend Double Dagger -8.4 -9.8 90 1 37 16.1 100.62   -18 LegendNANA
15:00 Legend Double Dagger -9.5 -10.6 92 1 37 8.1 100.65   -20 Fog
16:00 Legend Double Dagger -10.5 -11.7 91 36 35 12.9 100.67   -21 LegendNANA
17:00 Legend Double Dagger -10.3 -11.6 90 1 39 9.7 100.68   -21 Fog
18:00 Legend Double Dagger -10.7 -12.0 90 36 35 16.1 100.67   -21 LegendNANA
19:00 Legend Double Dagger -10.8 -12.4 88 1 39 14.5 100.69   -22 LegendNANA
20:00 Legend Double Dagger -12.0 -14.2 84 1 34 16.1 100.71   -23 LegendNANA
21:00 Legend Double Dagger -12.1 -13.7 88 36 35 16.1 100.67   -23 LegendNANA
22:00 Legend Double Dagger -13.2 -14.4 91 36 32 2.4 100.68   -24 Snow
23:00 Legend Double Dagger -13.3 -14.5 91 36 34 2.0 100.67   -24 Fog

Notes on Data Quality.

Legend

  • E = Estimated
  • M = Missing
  • NA = Not Available
  • ‡ = Partner data that is not subject to review by the National Climate Archives
Date modified: